This demonstration page uses our WeatherBlox Daily Observations layout. Learn more.

Left ArrowRight Arrow

Hourly Observations for February 23, 2015

Temp ( °F °C ) Dew Point ( °F °C ) Humidity (%) Winds ( mph kmh ) Pressure ( in mb ) Visibility ( mi km ) Precip ( " mm )
12:51 am 00:51 Mostly Cloudy 57 13.9 39 3.9 51 51 SW 5 7 29.82 1010 10 16 N/A
1:51 am 01:51 Mostly Clear 57 13.9 39 3.9 51 51 E 7 11 29.79 1009 10 16 N/A
2:51 am 02:51 Mostly Clear 59 15 38 3.3 46 46 NNE 6 9 29.78 1009 10 16 N/A
3:51 am 03:51 Clear 58 14.4 37 2.8 46 46 VRB 3 6 29.78 1008 10 16 N/A
4:51 am 04:51 Clear 51 10.6 39 3.9 64 64 W 8 13 29.81 1010 10 16 N/A
5:51 am 05:51 Clear 47 8.3 40 4.4 77 77 N N/A 29.84 1010 10 16 N/A
6:51 am 06:51 Partly Cloudy 46 7.8 40 4.4 79 79 NNE 5 7 29.87 1012 10 16 N/A
7:51 am 07:51 Mostly Sunny 50 10 41 5 71 71 SE 6 9 29.90 1013 10 16 N/A
8:51 am 08:51 Sunny 58 14.4 37 2.8 46 46 SE 9 15 29.91 1013 10 16 N/A
9:51 am 09:51 Sunny 57 13.9 35 1.7 44 44 SE 9 15 29.93 1014 10 16 N/A
10:51 am 10:51 Mostly Sunny 62 16.7 35 1.7 37 37 E 10 17 29.92 1013 10 16 N/A
11:51 am 11:51 Sunny 67 19.4 35 1.7 31 31 E 13 20 29.89 1012 10 16 N/A
12:51 pm 12:51 Sunny 68 20 34 1.1 28 28 ENE 8 13 29.86 1011 10 16 N/A
1:51 pm 13:51 Sunny 70 21.1 34 1.1 27 27 N N/A 29.82 1010 10 16 N/A
2:51 pm 14:51 Sunny 72 22.2 32 undefined 23 23 W 6 9 29.80 1009 10 16 N/A
3:51 pm 15:51 Sunny 70 21.1 36 2.2 29 29 NW 15 24 29.81 1010 10 16 N/A
4:51 pm 16:51 Sunny 66 18.9 38 3.3 36 36 NW 16 26 29.85 1011 10 16 N/A
5:51 pm 17:51 Sunny 63 17.2 37 2.8 38 38 NW 20 31 29.88 1012 10 16 N/A
6:51 pm 18:51 Clear 61 16.1 37 2.8 41 41 NW 15 24 29.91 1013 10 16 N/A
7:51 pm 19:51 Clear 60 15.6 37 2.8 42 42 NNW 10 17 29.93 1013 10 16 N/A
8:51 pm 20:51 Clear 58 14.4 37 2.8 46 46 NNW 5 7 29.93 1014 10 16 N/A
9:51 pm 21:51 Clear 57 13.9 37 2.8 47 47 N N/A 29.94 1014 10 16 N/A
10:51 pm 22:51 Clear 54 12.2 31 -0.6 42 42 ESE 7 11 29.92 1013 10 16 N/A
11:51 pm 23:51 Clear 52 11.1 30 -1.1 43 43 SE 12 19 29.91 1013 10 16 N/A

Powered by AerisWeather